Regional Weather Roundup
Issued by NWS

Home | Current Version | Previous Version | Text Only | Print | Product List | Glossary On
Versions: 1 2 3 4 5 6 7 8 9 10 11 12 13 14 15 16 17 18 19 20 21 22 23 24 25 26 27 28 29 30 31 32 33 34 35 36 37 38 39 40 41 42 43 44 45 46 47 48 49 50
000
ASUS43 KTOP 271208
RWRKS

WEATHER ROUNDUP FOR KANSAS
NATIONAL WEATHER SERVICE GOODLAND KS
700 AM CDT MON APR 27 2015

NOTE:  "FAIR" INDICATES FEW OR NO CLOUDS BELOW 12,000 FEET WITH NO
SIGNIFICANT WEATHER AND/OR OBSTRUCTIONS TO VISIBILITY.

KSZ001>006-013>018-027>032-041>047-271300-
NORTHWEST KANSAS

CITY           SKY/WX    TMP DP  RH WIND       PRES   REMARKS
GOODLAND       CLOUDY    41  41 100 NE13      30.12S FOG
6HR MIN TEMP:  41; 6HR MAX TEMP:  44;

HAYS           CLOUDY    43  30  61 NE12      30.09R
HILL CITY      CLOUDY    43  35  73 NE10      30.12S
6HR MIN TEMP:  42; 6HR MAX TEMP:  49;

RUSSELL        CLOUDY    42  38  85 NE9       30.08R
6HR MIN TEMP:  42; 6HR MAX TEMP:  46;

$$

KSZ061>065-074>080-084>089-271300-
SOUTHWEST KANSAS

CITY           SKY/WX    TMP DP  RH WIND       PRES   REMARKS
DODGE CITY     LGT RAIN  44  40  85 NE16      30.01S
6HR MIN TEMP:  44; 6HR MAX TEMP:  47; 6HR PCP:  0.11;

ELKHART          N/A     43  38  83 NE15        N/A
GARDEN CITY    CLOUDY    43  40  89 NE18G28   30.01R
6HR MIN TEMP:  43; 6HR MAX TEMP:  45; 6HR PCP:  0.01;

GREAT BEND     MOCLDY    46  36  66 NE13      30.04S
LIBERAL        CLOUDY    45  41  87 NE20G26   29.97S
$$

KSZ066>073-081>083-090>101-271300-
SOUTHEAST KANSAS

CITY           SKY/WX    TMP DP  RH WIND       PRES   REMARKS
CHANUTE        CLOUDY    49  38  65 NE10      30.04R
6HR MIN TEMP:  49; 6HR MAX TEMP:  53;

COFFEYVILLE    CLOUDY    51  39  63 NE9       30.00R
6HR MIN TEMP:  51; 6HR MAX TEMP:  54;

HUTCHINSON     CLOUDY    48  37  65 NE10      30.03R
6HR MIN TEMP:  48; 6HR MAX TEMP:  51;

MEDICINE LODGE   N/A     48  42  80 NE16G24   29.94S
NEWTON         CLOUDY    46  34  61 NE13G18   30.05R
WICHITA INTL   CLOUDY    51  37  58 NE15      29.99S
6HR MIN TEMP:  51; 6HR MAX TEMP:  53;

WICHITA JABRA  CLOUDY    48  37  65 NE12      30.00S
6HR MIN TEMP:  48; 6HR MAX TEMP:  51;

WICHITA MCCONL CLOUDY    51  37  60 NE16      29.99S
WINFIELD       LGT RAIN  49  42  77 NE13      29.97R
6HR MIN TEMP:  49; 6HR MAX TEMP:  54; 6HR PCP:  0.07;

$$

KSZ007>012-019>026-033>040-048>060-102>105-271300-
NORTHEAST KANSAS

CITY           SKY/WX    TMP DP  RH WIND       PRES   REMARKS
CONCORDIA      CLOUDY    42  34  73 NE5       30.13R
6HR MIN TEMP:  41; 6HR MAX TEMP:  47;

EMPORIA        CLOUDY    44  38  79 NE9       30.07R
6HR MIN TEMP:  44; 6HR MAX TEMP:  50;

LAWRENCE       CLOUDY    40  37  89 N3        30.13R
6HR MIN TEMP:  40; 6HR MAX TEMP:  48;

MANHATTAN      CLOUDY    43  37  79 NE3       30.11R
6HR MIN TEMP:  42; 6HR MAX TEMP:  47;

MARYSVILLE     CLOUDY    36  34  93 CALM      30.15R
OLATHE IND     CLOUDY    40  36  86 N3        30.12R
6HR MIN TEMP:  40; 6HR MAX TEMP:  49;

OLATHE EXE     CLOUDY    44  37  76 NE7       30.10R
6HR MIN TEMP:  44; 6HR MAX TEMP:  49;

SALINA         CLOUDY    47  36  65 NE8       30.10R
6HR MIN TEMP:  45; 6HR MAX TEMP:  49;

TOPEKA BILLARD CLOUDY    40  38  93 N3        30.12R
6HR MIN TEMP:  40; 6HR MAX TEMP:  47;

TOPEKA FORBES  CLOUDY    45  37  73 N5        30.10S
6HR MIN TEMP:  41; 6HR MAX TEMP:  50;

$$


USA.gov is the U.S. government's official web portal to all federal, state and local government web resources and services.